This is the latest recevied weather packets stored in our database for station/object NY3Q. If no packets are shown the sender has not sent any weather packets the latest 10 day(s).
| Time | Temp. | Humidity | Pressure | Rain* | Wind** | Luminosity | Snow |
|---|---|---|---|---|---|---|---|
| 1777987166 | 25° C | 60% | 1017.2 hPa | 0 mm | - | 216 W/m² | - |
| 1777986863 | 24.44° C | 63% | 1017.4 hPa | 0 mm | - | 243 W/m² | - |
| 1777986561 | 24.44° C | 63% | 1017.4 hPa | 0 mm | - | 220 W/m² | - |
| 1777986258 | 24.44° C | 64% | 1017.1 hPa | 0 mm | - | 68 W/m² | - |
| 1777985955 | 24.44° C | 65% | 1017.1 hPa | 0 mm | - | 139 W/m² | - |
| 1777985653 | 23.89° C | 66% | 1017.2 hPa | 0 mm | - | 194 W/m² | - |
| 1777985349 | 23.89° C | 65% | 1017.1 hPa | 0 mm | - | 180 W/m² | - |
| 1777985046 | 23.89° C | 68% | 1017.1 hPa | 0 mm | - | 169 W/m² | - |
| 1777984742 | 23.33° C | 74% | 1017.2 hPa | 0 mm | - | 158 W/m² | - |
| 1777984439 | 22.78° C | 82% | 1017.2 hPa | 0 mm | - | 139 W/m² | - |
| 1777984135 | 21.67° C | 89% | 1017.4 hPa | 0 mm | - | 120 W/m² | - |
| 1777983832 | 21.11° C | 92% | 1017 hPa | 0 mm | - | 99 W/m² | - |
| 1777983529 | 19.44° C | 95% | 1017.1 hPa | 0 mm | - | 87 W/m² | - |
| 1777983226 | 18.89° C | 95% | 1017.1 hPa | 0 mm | - | 78 W/m² | - |
| 1777982922 | 18.89° C | 95% | 1017 hPa | 0 mm | - | 70 W/m² | - |
| 1777982618 | 18.89° C | 96% | 1016.9 hPa | 0 mm | - | 63 W/m² | - |
| 1777982317 | 18.33° C | 95% | 1016.8 hPa | 0 mm | - | 54 W/m² | - |
| 1777982014 | 17.78° C | 96% | 1016.6 hPa | 0 mm | - | 51 W/m² | - |
| 1777981712 | 16.67° C | 95% | 1016.6 hPa | 0 mm | - | 47 W/m² | - |
| 1777981408 | 16.67° C | 95% | 1016.8 hPa | 0 mm | - | 43 W/m² | - |
| 1777981105 | 15.56° C | 95% | 1016.7 hPa | 0 mm | - | 39 W/m² | - |
| 1777980801 | 15.56° C | 96% | 1016.8 hPa | 0 mm | - | 30 W/m² | - |
| 1777980497 | 14.44° C | 96% | 1016.8 hPa | 0 mm | - | 30 W/m² | - |
| 1777980195 | 13.89° C | 95% | 1016.8 hPa | 0 mm | - | 24 W/m² | - |
| 1777979890 | 13.33° C | 95% | 1016.7 hPa | 0 mm | - | 20 W/m² | - |
* Rain latest hour (hover to see other rain measurements)
** Current wind speed in m/s (hover to see current wind gust speed)